STARLINK-35496, 66114

Orbit data source: Space-Track

STARLINK-35496, 66114 is a payload satellite owned by SpaceX/Seattle (US) in LEO that was launched on Wed, 22 Oct 2025 UTC via an FALCON 9 launch vehicle from the Air Force Western Test Range (AFWTR). Payload-class satellites include a variety of spacecraft equipped with specific instruments for various scientific and technological missions. These include communications satellites like Starlink; space stations such as the ISS; scientific satellites like the Hubble; Earth observation satellites from companies like Planet Labs, Umbra, and HawkEye 360; GPS; miniature CubeSats for education and research; and military/defense satellites.

Loading next visibility...
Identifier
66114, 2025-237A
Orbit
LEO
Country
Flag of USUS
Related business
Manufacturer
SpaceX/Seattle
Mission
Operational spacecraft
Bus & Motor
STARLINK V2MO, Unknown motor
Mass
575 kg wet, ~530 kg dry
Launch date (UTC)
2025-10-22 (2 weeks ago)
Launch vehicle
FALCON 9
Launch site
Air Force Western Test Range (AFWTR)
Object type
Payload
Rocket body
Debris
Shape & HBR
Unknown shape, 17.7 m
Radar Cross Section
RCS unknown

Expand to show TLE details & history
Last TLE update: 6 hours ago

TLE from 6 hours ago
0 STARLINK-35496
1 66114U 25237A   25312.16668980 -.01839706  00000-0 -16984-1 0  9999
2 66114  53.1595 251.4466 0001147  89.3214 185.0290 15.70306544  3920
Epoch: 2025-11-08T04:00Z
TLE epoch observation values (Epoch: 2025-11-08T04:00:01.998Z)
Latitude
-53.09544°
Longitude
61.0499°
Altitude
377.231 km
Speed
7.683 km/s
True Right ascension
11h 14m 38s
True Declination
-52° 55' 15"
Sunlit
Object was in daylight at epoch
Visualization orbit readout
Latitude
Unknown
Longitude
Unknown
Altitude
Unknown
Speed
Unknown
Apparent Right ascension
Unknown
Apparent Declination
Unknown
Sunlit
N/A
Visualization observer readout
Local Sidereal Time
06:36:54
Azimuth
Unknown
Elevation
Unknown
Doppler factor
Unknown
Orbital elements
Apogee altitude
359.054 km
Perigee altitude
357.508 km
Semi-major axis
6,736.418 km
Eccentricity
0.00011
Inclination
53.1595°
RAAN
251.4466°
Arg. of periapsis
89.3214°
True anomaly
185.02785°
Mean anomaly
185.029°
Eccentric anomaly
185.02842°
Mean motion
3.92554 °/min
Orbital period
91.71 mins
BSTAR
-0.016984
Loading maneuver chart data...
Computing Atmospheric mass density...
Loading historical data...
Loading historical data...
Loading historical data...
Loading historical data...
Loading historical data...
Loading historical data...
Loading historical data...

Documentation

Showing up to 5 results
|